Back to catalog

CELTEE 1

AliveSciencePO
NORAD 41850·PAYLOAD·🇺🇸 United States

Launched Nov 11, 2016 from Vandenberg Space Force Base

Loading…

Next Passes (next 24 hours)

TLE

FreshSource: Space-Track

Epoch: Sep 14, 2026, 14:25 UTC

1 41850U 16067C   26257.60102856  .00004326  00000-0  20191-3 0  9999
2 41850  98.0515 130.2527 0000810  59.0223 301.1090 15.20434928539467

Track CELTEE 1 in real time with AllMySat

Download on the App Store